Location: B?ogocice
(50.2413°N, 20.2361°E)
Time: 23:15:54
(UTC+00:00)

Cosmos 1606 - Pass Details

Date: 15 June 2024
Orbit: 456 x 469 km, 82.5° (Epoch: 18 July)

Event Time Altitude Azimuth Distance (km) Brightness Sun altitude
Rises 00:51:16 0° 340° (NNW) 2,532 6.8 -10.9°
Reaches altitude 10° 00:53:32 10° 329° (NNW) 1,652 5.6 -10.7°
Maximum altitude 00:56:39 28° 269° (W) 926 3.7 -10.4°
Enters shadow 00:58:57 15° 217° (SW) 1,362 4.2 -10.2°
